ISS (ZARYA) 1 25544U 98067A 10210.92591274 -.00001493 +00000-0 -67516-5 0 06089 2 25544 051.6445 011.8696 0007899 162.0873 335.0863 15.71304437670194 PROGRESS-M 03M (Decayed 2010-04-27) 1 35948U 09056A 10117.56794139 .00057297 00000-0 30008-3 0 2169 2 35948 051.6454 130.1536 0024769 309.7886 143.2205 15.79775315 30688 SOYUZ-TMA 17 (Decayed 2010-06-02) 1 36129U 09074A 10152.50217123 +.00026765 +00000-0 +17876-3 0 01250 2 36129 051.6473 310.9826 0009003 011.7112 093.2006 15.75086113025636 PROGRESS-M 04M (Decayed 2010-07-01) 1 36361U 10003A 10182.22099537 .00008802 00000-0 66933-4 0 3108 2 36361 051.6463 158.2971 0005421 041.2652 144.9421 15.73210645 23331 SOYUZ-TMA 18 1 36505U 10011A 10210.52791510 +.00011113 +00000-0 +90068-4 0 00980 2 36505 051.6447 013.9091 0007693 160.5972 243.7116 15.71327243018644 PROGRESS M-05M 1 36521U 10018A 10210.52791510 +.00011113 +00000-0 +90068-4 0 00828 2 36521 051.6447 013.9091 0007693 160.5972 243.7116 15.71327243014468